Location: Writing-on-Stone Provincial Park
(49.0825°N, 111.6163°W)
Time: 10:42:00
(UTC-06:00)

Daily predictions for brighter satellites

Satellite Brightness Start Highest point End
(mag) Time Altitude Azimuth Time Altitude Azimuth Time Altitude Azimuth
Cosmos 2074 Rocket 4.3 20:50:51 10° SSW 20:57:09 79° W 21:03:29 10° N
SJ-11-01 4.5 20:54:36 10° SSE 20:59:10 56° ENE 21:03:45 10° N
Resurs 1-3 3.6 20:55:20 10° SSE 20:59:41 67° ENE 21:04:04 10° N
Cosmos 220 Rocket 4.1 20:57:01 10° NNW 21:01:22 60° ENE 21:05:36 10° SE
Meteor 2-3 Rocket 3.8 20:55:53 10° N 21:01:26 61° ENE 21:07:00 10° SSE
BREEZE-M DEB (TANK) 2.5 20:56:34 10° W 21:01:57 77° SSW 21:04:15 10° ESE
Sich 1 3.0 20:57:56 10° N 21:02:15 88° WSW 21:06:31 10° S
Cosmos 1610 Rocket 4.5 20:57:44 10° S 21:03:51 82° E 21:10:04 10° N
Cosmos 1151 Rocket 4.0 21:04:16 10° SSE 21:07:53 27° E 21:11:30 10° NNE
NOSS 2-1 (C) 3.2 21:07:06 10° SSW 21:10:41 58° SE 21:14:47 10° NE
Cosmos 1300 4.3 21:07:18 10° SW 21:10:55 40° WNW 21:14:35 10° N
Meteor 2-21 Rocket 4.5 21:05:10 10° S 21:11:12 64° E 21:17:21 10° NNE
NOSS 2-1 (D) 3.2 21:08:04 10° SSW 21:11:39 61° SE 21:15:47 10° NE
ARGOS 4.0 21:07:41 10° SE 21:12:26 34° ENE 21:17:13 10° N
Spot 2 Rocket 3.5 21:08:48 10° SSE 21:13:52 72° ENE 21:18:58 10° N
ATLAS 2AS CENTAUR R/B 3.1 21:06:42 10° NW 21:14:46 86° SW 21:22:12 10° SE
Lacrosse 5 3.3 21:10:19 10° WNW 21:14:56 33° N 21:19:32 10° ENE
SPOT 5 4.5 21:19:26 10° E 21:22:23 17° ENE 21:25:15 10° NNE
Nadezhda 3 Rocket 4.3 21:16:26 10° NNW 21:22:43 75° W 21:29:02 10° S
Cosmos 1633 Rocket 3.3 21:18:25 10° NNW 21:22:46 73° W 21:27:05 10° S
Cosmos 2360 Rocket 3.5 21:21:25 10° SW 21:26:48 45° NW 21:32:13 10° NNE
Cosmos 1980 4.2 21:22:36 10° S 21:27:48 38° ESE 21:33:02 10° NE
Cosmos 1408 2.7 21:29:10 10° N 21:32:48 57° ENE 21:36:08 12° SSE
Meteor 2-14 Rocket 4.5 21:27:07 10° S 21:33:13 90° E 21:39:24 10° N
Cosmos 1455 2.1 21:30:52 10° S 21:34:42 86° E 21:38:35 10° N
Cosmos 2369 Rocket 4.3 21:31:58 10° N 21:35:17 15° NNE 21:38:35 10° ENE
Meteor 1-27 4.2 21:29:38 10° S 21:35:21 78° E 21:41:01 10° NNE
Cosmos 2333 Rocket 2.2 21:30:46 10° SSW 21:36:22 67° ESE 21:42:00 10° NNE
ERS-2 4.3 21:33:22 10° SSW 21:36:31 27° W 21:39:42 10° NW
Cosmos 1515 Rocket 3.7 21:32:55 10° S 21:37:17 57° E 21:41:41 10° NNE
Cosmos 1892 4.0 21:33:41 10° NNW 21:37:23 42° W 21:41:03 10° SSW
Cosmos 2228 Rocket 3.1 21:33:08 10° S 21:37:25 57° E 21:41:46 10° NNE
Helios 1A 4.3 21:35:50 15° ESE 21:38:18 25° ENE 21:41:43 10° N
Cosmos 1844 Rocket 4.2 21:35:08 10° NW 21:40:12 34° WSW 21:45:15 10° S
COSMOS 2428 3.0 21:35:54 10° SW 21:41:38 74° WNW 21:47:23 10° NNE
NOSS 2-1 (E) 3.4 21:38:20 10° SW 21:42:02 82° NW 21:46:27 10° NE
Meteor 2-16 Rocket 4.5 21:36:36 10° S 21:42:44 88° ESE 21:48:54 10° N
NOSS 3-4 (A) 4.0 21:38:17 10° NW 21:45:07 64° NE 21:51:01 17° ESE
NOSS 3-4 (C) 4.0 21:38:23 10° NW 21:45:14 63° NE 21:51:06 17° ESE
Cosmos 407 Rocket 3.8 21:42:54 10° NNW 21:47:55 49° ENE 21:51:21 19° SE
Cosmos 1862 4.4 21:44:21 10° N 21:47:56 29° ENE 21:49:46 20° ESE
USA 245 3.9 21:48:38 19° ENE 21:48:52 19° ENE 21:50:41 10° NNE
H-2A R/B 2.2 21:48:28 17° SE 21:52:09 52° ENE 21:56:59 10° N
Genesis I 4.3 21:48:20 10° NW 21:52:11 41° WSW 21:55:26 14° S
ERS-1 Rocket 3.3 21:50:13 18° SE 21:53:43 50° ENE 21:58:34 10° N
Cosmos 2219 Rocket 2.3 21:49:01 10° SSW 21:54:42 80° WNW 22:00:23 10° NNE
Cosmos 2237 Rocket 2.2 21:49:50 10° S 21:55:19 57° ESE 22:00:51 10° NE
NOSS 3-3 (A) 4.0 21:49:15 10° SW 21:55:22 83° SE 22:02:12 10° NE
NOSS 3-3 (C) 4.0 21:49:21 10° SW 21:55:28 83° SE 22:02:18 10° NE
Cosmos 1328 Rocket 4.0 21:52:50 10° SSW 21:57:13 65° WNW 22:01:40 10° N
MetOp-A 4.1 21:53:47 15° SSE 21:58:16 75° ENE 22:03:38 10° NNW
USA 267 4.1 21:53:44 10° ENE 21:58:51 24° SE 22:03:56 10° S
Cosmos 1371 Rocket 4.3 21:54:35 10° S 21:59:39 46° ESE 22:04:46 10° NNE
Resurs 01 Rocket 3.3 21:56:31 10° SSW 22:00:31 33° W 22:04:34 10° NNW
Cosmos 2278 Rocket 2.5 21:55:00 10° NNW 22:00:37 65° WSW 22:05:27 14° SSE
Cosmos 405 Rocket 3.9 22:03:13 24° ESE 22:03:41 25° E 22:06:55 10° NE
Cosmos 1470 Rocket 4.4 22:00:41 10° NNW 22:04:57 50° W 22:09:13 10° S
SL-08 RB Rocket 3.7 22:02:53 22° SSE 22:05:43 66° ENE 22:10:10 10° N
Cosmos 676 Rocket 4.5 22:01:46 10° NNW 22:06:51 46° ENE 22:09:38 24° ESE
ATLAS 5 CENTAUR R/B 3.8 22:02:45 10° NNW 22:07:26 27° NNE 22:12:35 10° E
ATLAS CENTAUR R/B 1.1 22:07:05 10° SW 22:10:47 89° WNW 22:14:42 10° NE
Cosmos 1727 Rocket 3.9 22:05:28 10° N 22:11:41 76° E 22:16:20 19° SSE
Cosmos 1959 Rocket 4.4 22:10:06 10° S 22:16:16 88° E 22:22:26 10° N
Cosmos 1825 3.1 22:14:46 10° NNW 22:18:26 46° W 22:21:23 14° SSW
Cosmos 405 2.8 22:17:16 10° NNW 22:20:48 89° ENE 22:22:04 38° SSE
Cosmos 2056 Rocket 3.6 22:15:56 10° S 22:21:13 56° ESE 22:26:30 10° NNE
Cosmos 2098 Rocket 2.8 22:20:02 12° S 22:24:20 90° WNW 22:28:03 10° N
Landsat 7 4.3 22:25:42 31° ESE 22:27:27 46° ENE 22:32:01 10° N
Cosmos 2218 Rocket 4.2 22:25:04 10° SSW 22:31:26 74° W 22:37:52 10° N
Cosmos 1933 4.0 22:33:06 35° E 22:33:12 35° E 22:36:56 10° NNE
USA 234 3.7 22:30:25 17° E 22:35:28 59° NNE 22:41:53 10° WNW
TRAILBLAZER 4.5 22:33:24 10° SSW 22:37:59 76° SE 22:42:42 10° NE
Cosmos 1624 Rocket 3.9 22:33:11 10° SSW 22:38:22 79° ESE 22:43:36 10° NNE
Cosmos 1190 Rocket 4.2 22:33:05 10° NNW 22:38:22 67° WSW 22:41:04 29° S
NOSS 0 Rocket 4.3 22:32:31 10° SW 22:38:40 67° WNW 22:44:53 10° NNE
Cosmos 1633 4.2 22:38:24 10° NNE 22:40:51 21° ENE 22:40:51 21° ENE
Cosmos 1869 4.2 22:38:19 11° SSW 22:42:03 49° WNW 22:46:00 10° N
Cosmos 2366 rocket 4.3 22:38:02 10° SSW 22:44:13 66° WNW 22:50:30 10° N
SL-16 R/B 2.2 22:41:17 23° S 22:44:48 58° ESE 22:50:22 10° NE
Cosmos 1140 Rocket 3.4 22:39:45 10° NNW 22:44:58 76° ENE 22:46:47 41° SE
GEOS 3 Rocket 3.7 22:39:51 10° NE 22:45:10 57° SE 22:50:21 10° SSW
Terra 2.3 22:43:59 37° ESE 22:45:12 46° ENE 22:49:45 10° N
Meteor 1-4 Rocket 4.2 22:43:37 10° NNE 22:45:56 21° ENE 22:45:56 21° ENE
Cosmos 1707 Rocket 3.4 22:50:41 51° SSE 22:51:39 72° E 22:55:58 10° NNE
Cosmos 1954 Rocket 3.9 22:46:30 10° NNW 22:51:46 87° ENE 22:53:30 43° SSE
ARGOS 4.1 22:48:41 16° SSW 22:52:35 42° W 22:57:41 10° NNW
Cosmos 1943 Rocket 3.5 22:47:50 10° NNW 22:52:36 29° NE 22:54:52 22° E
Helios 1B rocket 2.4 22:51:45 10° NNE 22:55:51 62° ESE 22:56:07 60° ESE
Cosmos 1869 Rocket 4.1 22:51:36 10° NNW 22:55:54 55° W 22:57:34 33° SSW
CZ-2C R/B 3.6 22:55:28 34° E 22:56:20 37° ENE 23:00:46 10° N
CZ-4C R/B 3.6 22:58:25 22° E 22:58:25 22° E 23:01:21 10° ENE
YAOGAN 11 4.3 22:58:13 50° E 22:58:43 53° ENE 23:02:55 10° N
Lacrosse 5 2.6 22:53:51 10° NW 22:58:48 48° NNE 23:01:09 28° E
SPOT 5 2.8 22:58:34 42° S 23:00:01 69° WSW 23:04:29 10° NNW
Meteor 1-29 3.8 23:04:43 10° NNE 23:07:07 41° NE 23:07:07 41° NE
Cosmos 1733 Rocket 3.0 23:03:53 10° N 23:08:16 63° ENE 23:08:32 61° E
CARTOSAT-1 3.4 23:08:49 69° SE 23:09:18 82° ENE 23:13:39 10° NNW
DMSP B5D2-2 4.0 23:05:01 10° NNE 23:10:19 87° WNW 23:12:37 35° SSW
Cosmos 1441 Rocket 3.8 23:09:54 42° WSW 23:10:46 53° WNW 23:14:27 10° N
Cosmos 2297 4.4 23:06:29 10° NW 23:11:52 46° WSW 23:14:04 31° SSW
Helios 1A 4.1 23:12:28 31° SW 23:13:42 39° W 23:17:39 10° NNW
Cosmos 2344 3.6 23:08:24 20° SSW 23:13:48 57° ESE 23:22:06 10° NE
Cosmos 2369 Rocket 2.5 23:15:04 10° NNW 23:20:41 55° NE 23:22:03 44° E
Cosmos 2333 Rocket 4.3 23:16:21 10° WSW 23:21:08 27° NW 23:25:57 10° NNE
SPOT 1/Viking Rocket 4.2 23:21:26 35° SSW 23:23:16 50° W 23:28:22 10° NNW
RESURS DK-1 3.3 23:19:39 10° NNW 23:23:33 37° NE 23:23:37 37° NE
BREEZE M DEB (TANK) 3.6 23:09:41 10° W 23:23:40 89° NNW 23:25:52 34° E
Cosmos 1420 Rocket 3.9 23:25:28 63° SE 23:25:58 67° ESE 23:31:17 10° NNE
Cosmos 2242 Rocket 3.6 23:27:42 64° ENE 23:27:42 64° ENE 23:31:45 10° NNE
Meteor 2-17 Rocket 4.5 23:26:28 52° SE 23:27:40 62° E 23:33:43 10° NNE
Meteor 1-25 Rocket 4.2 23:21:59 10° N 23:27:46 77° ENE 23:28:54 58° SE
BREEZE-M DEB (TANK) 4.5 22:57:24 10° WNW 23:28:53 67° SW 23:31:54 42° SSE
SL-8 R/B 4.0 23:25:14 10° WSW 23:28:58 52° SW 23:28:58 52° SW
H-2A R/B 3.8 23:29:05 15° SW 23:31:52 24° W 23:35:52 10° NW
Cosmos 1437 Rocket 3.1 23:29:33 10° NNW 23:33:02 60° WNW 23:33:02 60° WNW
Meteor 1-26 Rocket 4.0 23:33:20 62° S 23:34:16 80° E 23:39:52 10° NNE
Cosmos 405 Rocket 4.5 23:38:21 24° WSW 23:39:36 29° WNW 23:43:07 10° N
Cosmos 2237 Rocket 4.0 23:34:46 10° WSW 23:39:43 31° NW 23:44:43 10° NNE
CZ-2C R/B 3.1 23:34:50 10° NNE 23:39:42 46° E 23:39:42 46° E
Cosmos 1934 Rocket 3.8 23:39:15 52° S 23:40:53 89° W 23:46:59 10° N
IGS 5A 4.1 23:41:25 47° W 23:41:27 47° W 23:45:31 10° NNW
USA 267 3.1 23:36:03 10° ENE 23:42:36 74° SE 23:49:08 10° SW
ATLAS CENTAUR R/B 4.1 23:47:39 10° WNW 23:50:21 18° NNW 23:53:10 10° NNE
ATLAS 5 CENTAUR R/B 2.4 23:47:10 10° NW 23:52:58 76° NE 23:54:11 58° ESE
